www.pogodaiklimat.ru
ПОГОДА в Тивате
Время
(UTC), дата
00 26.05
03 26.05
04 26.05
05 26.05
06 26.05
08 26.05
07 26.05
09 26.05
10 26.05
11 26.05
12 26.05
14 26.05
13 26.05
15 26.05
16 26.05
17 26.05
18 26.05
20 26.05
19 26.05
21 26.05
00 27.05
03 27.05
04 27.05
05 27.05
06 27.05
08 27.05
07 27.05
09 27.05
10 27.05
11 27.05
12 27.05
14 27.05
13 27.05
15 27.05
16 27.05
17 27.05
18 27.05
20 27.05
19 27.05
21 27.05
00 28.05
03 28.05
04 28.05
05 28.05
06 28.05
08 28.05
07 28.05
09 28.05
10 28.05
11 28.05
12 28.05
14 28.05
13 28.05
15 28.05
16 28.05
17 28.05
18 28.05
20 28.05
19 28.05
21 28.05
00 29.05
03 29.05
04 29.05
05 29.05
06 29.05
08 29.05
07 29.05
09 29.05
10 29.05
11 29.05
12 29.05
14 29.05
13 29.05
15 29.05
16 29.05
17 29.05
18 29.05
20 29.05
19 29.05
21 29.05
00 30.05
03 30.05
04 30.05
05 30.05
06 30.05
08 30.05
07 30.05
09 30.05
10 30.05
11 30.05
12 30.05
14 30.05
13 30.05
15 30.05
16 30.05
17 30.05
18 30.05
20 30.05
19 30.05
21 30.05
00 31.05
03 31.05
04 31.05
05 31.05
06 31.05
08 31.05
07 31.05
09 31.05
10 31.05
11 31.05
12 31.05
14 31.05
13 31.05
15 31.05
16 31.05
17 31.05
18 31.05
20 31.05
19 31.05
21 31.05
00 1.06
01 1.06
02 1.06
03 1.06
05 1.06
04 1.06
06 1.06
07 1.06
08 1.06
09 1.06
11 1.06
10 1.06
12 1.06
13 1.06
14 1.06
15 1.06
17 1.06
16 1.06
18 1.06
19 1.06
20 1.06
21 1.06
Ветер
(напр.,м/с)
Видим. Явления Облачность Т
(С)
Тd
(С)
f
(%)
Тe
(С)
Тes
(С)
Комфортность P
(гПа)
Po
(гПа)
Тmin
(С)
Tmax
(С)
R
(мм)
R24
(мм)
S
(см)
СВ 4 20 км 4/0
[Ac trans]
+19.0 +2.8 34 +19 +19 1020.2 1019.6
С 5
{11}
20 км 9/0
[Ac trans Cs]
+17.5 +2.3 36 +17 +17 1020.3 1019.6
СВ 4 20 км 9/0
[Ac trans Cs]
+17.4 +2.2 36 +17 +17 1020.1 1019.5
СВ 3 20 км 5/0
[Ac trans Ci sp]
+17.9 +1.9 34 +18 +19 1020.1 1019.4
С 5
{10}
20 км 1/0
[Ac trans]
+19.0 +2.2 33 +19 +21 1020.4 1019.8 +13.6 0.0
С 4 20 км 1/0
[Ac trans]
+20.9 +2.6 30 +21 +30 комфорт 1020.0 1019.4
СВ 4 20 км 1/0
[Ac trans]
+19.2 +2.3 32 +19 +25 1020.1 1019.4
С 3 20 км 1/0
[Ac trans]
+21.4 +2.0 28 +21 +34 комфорт 1020.1 1019.4
С 4 20 км 4/1 1500 м
[Cu med, cong Ac trans]
+22.1 +2.3 27 +22 +31 комфорт 1019.8 1019.2
С 4 20 км 6/4 1500 м
[Cu med, cong Ac trans]
+22.8 +1.8 25 +22 +29 комфорт 1019.3 1018.7
СЗ 5 20 км 6/4 1500 м
[Cu med, cong Ac trans]
+22.5 +3.4 29 +22 +27 комфорт 1019.1 1018.5
С 5
{11}
20 км 4/3 1500 м
[Cu med, cong Ac trans]
+22.4 +3.0 28 +22 +26 комфорт 1019.1 1018.5
С 4
{9}
20 км 5/4 1500 м
[Cu med, cong Ac trans]
+21.9 +2.7 28 +22 +27 комфорт 1019.2 1018.6
С 6
{12}
20 км 4/3 1500 м
[Cu med, cong Ac trans]
+21.1 +1.7 28 +21 +23 комфорт 1019.6 1019.0
С 6
{12}
20 км 4/3 1500 м
[Cu med, cong Ac trans]
+19.8 +1.3 29 +20 +20 1020.0 1019.4
С 5
{12}
20 км 4/0
[Ac trans]
+19.5 +0.7 28 +19 +20 1020.1 1019.5
С 3
{12}
20 км 3/0
[Ac trans]
+19.1 +1.3 30 +19 +19 1020.6 1020.0 +23.7
С 5
{10}
20 км 4/0
[Ac trans]
+18.2 +2.5 35 +18 +18 1021.5 1020.9
С 5
{11}
20 км 4/0
[Ac trans]
+18.3 +2.7 35 +18 +18 1021.0 1020.3
С 4 20 км 4/0
[Ac trans]
+18.3 +2.6 35 +18 +18 1021.4 1020.7
СЗ 2 20 км 9/0
[Ac trans Cs]
+17.3 +1.7 35 +18 +18 1021.2 1020.5
штиль 0 20 км 4/0
[Ac trans Cs]
+17.0 +2.6 38 +17 +17 1021.2 1020.6
СВ 1 20 км 3/1 1500 м
[Cu hum Ci fib]
+15.6 +3.5 44 +16 +17 1021.6 1021.0
штиль 0 20 км 3/1 1500 м
[Cu hum Ac trans]
+16.6 +5.7 48 +17 +19 1021.8 1021.1
СЗ 1 20 км 3/1 1500 м
[Cu hum Ac trans]
+19.4 +3.7 35 +21 +25 комфорт 1021.9 1021.3 +14.5 0.0
С 3 20 км 4/3 1500 м
[Cu hum Ac trans]
+20.6 +2.7 31 +21 +28 комфорт 1022.3 1021.7
С 3
{8}
20 км 3/1 1500 м
[Cu hum Ac trans]
+20.0 +3.2 33 +21 +27 комфорт 1022.1 1021.5
СЗ 4 20 км 4/3 1500 м
[Cu hum Ac trans]
+20.7 +2.2 29 +21 +28 комфорт 1022.4 1021.8
С 3 20 км 4/4 1500 м
[Cu med, cong]
+22.6 +2.8 27 +22 +32 комфорт 1022.2 1021.6
С 3 20 км 4/4 1500 м
[Cu med, cong]
+22.8 +2.3 26 +22 +32 комфорт 1021.8 1021.2
С 4 20 км 4/4 1500 м
[Cu med, cong]
+22.6 +3.0 28 +22 +30 комфорт 1021.7 1021.1 0.0
СВ 3 20 км 5/3 1500 м
[Cu med, cong Ci fib]
+23.1 +2.9 27 +23 +29 комфорт 1021.2 1020.6
С 3
{9}
20 км 6/4 1500 м
[Cu med, cong Ci fib]
+22.8 +2.4 26 +22 +29 комфорт 1021.4 1020.8
С 4
{11}
20 км 4/1 1500 м
[Cu med, cong Ci fib]
+22.6 +3.6 29 +23 +26 комфорт 1021.2 1020.6
С 4
{11}
20 км 6/1 1500 м
[Cu med, cong Ci sp]
+21.9 +3.7 30 +22 +24 комфорт 1021.0 1020.4
С 5
{12}
20 км 6/0
[Ac trans Ci sp]
+20.5 +3.1 32 +21 +21 комфорт 1021.5 1020.9
С 5 20 км 6/0 1500 м
[Ac trans Ci sp]
+20.0 +3.6 34 +20 +20 1021.8 1021.2 +23.9 0.0
С 5
{12}
20 км 4/0
[Ac trans Ci sp]
+19.6 +4.0 36 +20 +20 1022.2 1021.6
С 4
{11}
20 км 4/0
[Ac trans Ci sp]
+19.6 +3.7 35 +20 +20 1022.0 1021.4
С 3 20 км 6/0
[Ac trans Ci sp]
+19.7 +4.1 36 +20 +20 1022.7 1022.1
СЗ 4 20 км 6/0
[Ac trans Ci sp]
+18.9 +3.9 37 +19 +19 1021.9 1021.3
С 2 20 км 4/0
[Ac trans Ci sp]
+18.3 +3.5 37 +19 +19 1021.4 1020.8
С 1 20 км 3/0
[Ac trans Ci fib]
+18.2 +3.7 38 +19 +20 1021.4 1020.7
С 1 20 км 1/0
[Ci fib]
+18.9 +4.2 38 +20 +23 1021.2 1020.6
С 3 20 км 1/0
[Ci fib]
+20.0 +4.4 36 +21 +25 комфорт 1021.2 1020.6 +17.5 0.0
СЗ 5 20 км 1/0
[Ci fib]
+20.9 +4.4 34 +22 +28 комфорт 1020.8 1020.2
СЗ 5 20 км 1/0
[Ci fib]
+20.9 +4.4 34 +22 +26 комфорт 1020.8 1020.2
З 2 20 км 6/3 1500 м
[Cu hum Ac trans]
+22.4 +5.9 34 +23 +32 комфорт 1020.0 1019.4
СЗ 2 20 км 6/3 1500 м
[Cu hum Ac trans]
+21.7 +8.2 42 +23 +33 комфорт 1019.8 1019.2
штиль 0 20 км 6/3 1500 м
[Cu med, cong Ac trans]
+22.3 +6.5 36 +23 +37 комфорт 1019.3 1018.7
Ю 1 20 км 5/1 1500 м
[Cu med, cong Ac trans]
+21.8 +8.0 41 +23 +37 комфорт 1019.0 1018.4
штиль 0 20 км 6/1 1500 м
[Cu med, cong Ac trans]
+20.8 +10.0 50 +22 +31 комфорт 1018.3 1017.7
СЗ 5 20 км 6/1 1500 м
[Cu med, cong Ac trans]
+21.3 +10.6 50 +23 +28 комфорт 1018.4 1017.8
СЗ 2 20 км 9/5 1500 м
[Cu Sc Ac trans]
+19.2 +9.5 53 +21 +22 комфорт 1018.7 1018.1
В 1 20 км 6/3 1500 м
[Cu med, cong Ac trans]
+19.4 +10.7 57 +22 +24 комфорт 1018.1 1017.5
ЮЗ 1 20 км 8/3 1500 м
[Cu med, cong Ac trans]
+19.1 +9.9 55 +21 +22 комфорт 1018.0 1017.3
З 2 20 км {гроза} 8/0
[Ac As]
+18.5 +7.6 49 +19 +19 1017.7 1017.1 +23.8 0.0
С 1 20 км 8/0
[Ac As]
+15.2 +9.2 67 +16 +16 1017.9 1017.3
штиль 0 20 км 8/0
[Ac As]
+16.1 +10.1 68 +16 +16 1017.7 1017.1
СВ 1 20 км 6/0
[Ac trans Ci sp]
+19.1 +4.0 37 +21 +21 комфорт 1017.8 1017.2
СВ 2 20 км 6/0
[Ac trans Ci fib]
+18.7 +3.3 36 +19 +19 1017.2 1016.6 0.0
Ю 1 20 км 4/0
[Ac trans]
+18.2 +3.3 37 +19 +19 1017.1 1016.5
ЮВ 1 20 км 3/0
[Ac trans]
+15.1 +4.7 50 +16 +16 1017.4 1016.8
ЮВ 1 20 км 6/0
[Ac trans]
+13.4 +7.2 66 +14 +15 1017.7 1017.1
штиль 0 20 км 5/0
[Ac trans]
+16.8 +8.3 57 +17 +22 1018.0 1017.4 +12.0 0.0
З 1 20 км 3/0
[Ac trans]
+21.9 +6.1 36 +23 +35 комфорт 1018.1 1017.5
штиль 0 20 км 3/0
[Ac trans]
+21.2 +5.6 36 +22 +32 комфорт 1018.2 1017.5
Ю 2 20 км 4/0
[Ac trans]
+21.1 +8.6 45 +22 +35 комфорт 1018.2 1017.6
ЮЗ 1 20 км 4/0
[Ac trans]
+22.0 +10.1 47 +24 +41 комфорт 1018.0 1017.4
ЮЗ 1 20 км 4/0
[Ac trans]
+22.0 +10.1 47 +24 +41 комфорт 1018.0 1017.4
С 2 20 км {гроза, дождь} 4/3 1200 м
[Cu med, cong Ac trans]
+21.6 +12.6 57 +24 +36 комфорт 1017.0 1016.4 1
З 3 20 км 5/3 1200 м
[Cu med, cong Ac trans]
+21.8 +7.8 41 +23 +28 комфорт 1016.0 1015.4
СЗ 3 20 км 4/3 1200 м
[Cu med, cong Ac trans]
+22.4 +8.5 41 +24 +32 комфорт 1016.5 1015.9
СЗ 1 20 км 8/6 1200 м
[Cu Sc Ac trans]
+17.2 +10.5 65 +18 +21 1016.6 1016.0
штиль 0 20 км 8/3 1500 м
[Sc Ac trans Ci ing]
+17.8 +11.4 66 +18 +20 1016.7 1016.1
штиль 0 20 км 8/0
[Ac trans Ci ing]
+17.6 +11.7 68 +18 +19 1016.4 1015.8
штиль 0 20 км 8/0
[Ac trans Ci ing]
+17.4 +12.0 71 +17 +17 1016.5 1015.9 +22.7 1
В 1 20 км 5/0
[Ac trans]
+14.4 +12.5 88 +15 +15 1016.5 1015.9
штиль 0 20 км 8/0
[Ac trans]
+15.2 +13.1 87 +15 +15 1016.4 1015.8
штиль 0 20 км 4/0
[Ac trans]
+13.7 +12.0 89 +13 +13 1016.5 1015.9
штиль 0 20 км 4/0
[Ac trans Ci sp]
+11.6 +9.9 89 +11 +11 1016.7 1016.1
штиль 0 20 км 6/3 2000 м
[Sc Ac trans]
+10.2 +9.1 93 +9 +9 1016.2 1015.6
штиль 0 20 км 6/3 2000 м
[Sc Ac trans]
+11.3 +10.2 93 +11 +11 1016.2 1015.6
штиль 0 20 км 6/3 2000 м
[Sc Ac trans]
+15.7 +13.7 88 +15 +17 1016.4 1015.7
штиль 0 20 км 9/3 2000 м
[Sc Ac trans Cs]
+16.8 +12.2 74 +17 +19 1016.2 1015.6 +9.8
ЮВ 3 20 км 9/5 900 м
[Cu Sc Ac trans Cs]
+19.2 +12.5 65 +21 +24 комфорт 1016.2 1015.6
штиль 0 20 км 9/3 900 м
[Cu med, cong Ac trans Cs]
+18.5 +11.7 65 +19 +24 1016.3 1015.7
штиль 0 10 км гроза, ливневой дождь {метель} 9/6 900 м
[Cb cap Cs]
+17.2 +13.3 78 +17 +25 1016.1 1015.5
В 1 10 км гроза без осадков 9/6 900 м
[Cb cap Cs]
+16.1 +12.9 81 +17 +24 1016.2 1015.5
Ю 1 10 км в посл. час крупа {гроза, ливн. осадки} 9/8 800 м
[Cb cap Ac trans]
+12.8 +10.3 85 +13 +16 1016.9 1016.3
СЗ 1 10 км {гроза, дождь} 9/8 800 м
[Cb cap Ac trans]
+16.0 +12.2 78 +17 +20 1015.9 1015.3 24
СЗ 3 10 км {дождь} 10/3 400 м
[Cu med, cong As op]
+15.6 +12.5 82 +15 +16 1016.0 1015.3
штиль 0 10 км гроза без осадков 10/1 900 м
[Cb cap As op]
+14.8 +12.6 87 +14 +18 1016.9 1016.3
ЮЗ 1 10 км {дождь} 10/5 1500 м
[St As op]
+15.7 +13.1 85 +16 +17 1016.1 1015.4
штиль 0 10 км 10/0
[Ac As]
+15.4 +13.4 88 +15 +17 1015.7 1015.1
штиль 0 10 км 9/0
[Ac As]
+15.2 +13.6 90 +15 +15 1015.6 1015.0
штиль 0 10 км {гроза, ливн. осадки} 9/0 2000 м
[Ac As]
+14.3 +12.7 90 +14 +14 1015.5 1014.9 +19.4 25
штиль 0 10 км 9/0
[Ac As]
+13.0 +11.7 92 +12 +12 1015.8 1015.2
штиль 0 10 км 9/0
[Ac As]
+13.4 +12.0 91 +13 +13 1015.5 1014.9
В 1 10 км 9/0 2000 м
[Ac As]
+13.0 +11.9 93 +13 +13 1015.8 1015.2
штиль 0 20 км 9/3 1500 м
[Sc As op]
+12.5 +11.7 95 +12 +12 1015.2 1014.6
штиль 0 10 км слаб. дождь 9/5 900 м
[Cu Sc As op]
+13.5 +12.4 93 +13 +13 1014.8 1014.2
штиль 0 10 км в посл. час дождь 10/6 600 м
[Cu Sc As op]
+13.4 +12.5 94 +13 +13 1015.0 1014.4
штиль 0 10 км в посл. час дождь 10/6 600 м
[Cu Sc As op]
+13.8 +12.9 94 +13 +14 1015.1 1014.5
штиль 0 10 км слаб. дождь {гроза} 9/5 300 м
[Cu Sc As op]
+14.1 +13.2 94 +14 +15 1015.0 1014.3 +12.3 1
штиль 0 20 км 10/5 300 м
[Cu Sc As op]
+16.1 +13.2 83 +16 +18 1015.1 1014.5
штиль 0 20 км в посл. час дождь 9/6 180 м
[Cu Sc As op]
+14.7 +13.4 92 +14 +16 1015.0 1014.3
Ю 2 20 км {дождь} 10/5 600 м
[Cu Sc As op]
+17.2 +12.8 75 +18 +19 1015.1 1014.5
Ю 1 20 км 10/5 600 м
[Cu Sc As op]
+15.9 +12.0 78 +17 +19 1015.2 1014.5
С 1 20 км в посл. час дождь 10/5 600 м
[Cu Sc As op]
+15.8 +13.2 85 +16 +19 1015.0 1014.4
штиль 0 20 км в посл. час дождь 10/5 300 м
[Cu Sc As op]
+16.7 +12.3 75 +17 +19 1014.7 1014.1 0.2
СЗ 2 20 км 9/1 900 м
[Cu med, cong Ac trans]
+17.5 +11.9 70 +18 +23 1013.8 1013.1
штиль 0 20 км в посл. час дождь 10/5 300 м
[Cu Sc As op]
+16.7 +12.3 75 +17 +19 1014.7 1014.1
ЮЗ 2 20 км 9/1 700 м
[Cu med, cong Ac trans]
+17.8 +11.8 68 +18 +21 1013.5 1012.9
ЮЗ 2 20 км 8/1 700 м
[Cu med, cong Ac trans]
+18.2 +11.8 66 +19 +21 1013.7 1013.0
СЗ 2 20 км 9/6 800 м
[Cu Sc Ac trans]
+17.2 +12.1 72 +18 +18 1013.6 1013.0
штиль 0 20 км {дождь} 9/6 800 м
[Cu Sc Ac trans]
+16.4 +11.7 74 +16 +16 1013.7 1013.1 +18.7 0.2
штиль 0 20 км {дождь} 3/0
[Ac trans]
+12.5 +10.9 90 +12 +12 1014.4 1013.7
ЮВ 1 20 км {дождь} 4/0
[Ac trans]
+14.3 +11.6 84 +15 +15 1013.8 1013.2
штиль 0 20 км {дождь} 4/0
[Ac trans]
+10.7 +9.7 94 +10 +10 1014.1 1013.5
штиль 0 20 км 9/3 1500 м
[Cu med, cong Ac trans Ci sp]
+10.4 +9.5 94 +10 +10 1014.1 1013.5
штиль 0 20 км 6/3 1500 м
[Cu med, cong Ac trans]
+10.0 +9.2 95 +9 +9 1014.3 1013.6
штиль 0 20 км 4/0
[Ac trans]
+8.9 +8.1 95 +8 +8 1014.0 1013.3
штиль 0 20 км ясно +8.2 +7.4 95 +7 +7 1013.7 1013.1
штиль 0 20 км 3/0
[Ac trans]
+12.2 +11.3 94 +12 +14 1013.9 1013.3
штиль 0 20 км 3/0
[Ac trans]
+8.6 +8.0 96 +8 +8 1013.9 1013.3
штиль 0 20 км 3/0
[Ac trans]
+16.5 +11.6 73 +16 +22 1013.8 1013.2 +7.5 0.0
Ю 1 20 км 3/0
[Ac trans]
+17.4 +9.7 61 +18 +27 1013.8 1013.2
штиль 0 20 км 3/1 1500 м
[Cu med, cong Ac trans]
+19.9 +6.0 40 +20 +34 опасность
простуды
1013.8 1013.2
ЮЗ 2 20 км 4/1 1500 м
[Cu med, cong Ac trans]
+19.8 +9.5 51 +22 +34 комфорт 1013.9 1013.3
ЮЗ 2 20 км 8/3 1200 м
[Cu med, cong Ac trans Ci sp]
+20.6 +9.7 50 +23 +32 комфорт 1013.6 1013.0
ЮЗ 2 20 км 6/3 1200 м
[Cu med, cong Ac trans Ci sp]
+20.5 +10.6 53 +23 +33 комфорт 1013.7 1013.1
ЮЗ 2 20 км 8/3 1200 м
[Cu med, cong Ac trans Ci sp]
+21.1 +8.7 45 +22 +30 комфорт 1013.6 1013.0
Ю 3 20 км 8/3 1200 м
[Cu med, cong Ac trans Ci sp]
+21.6 +8.5 43 +23 +28 комфорт 1013.4 1012.8
Ю 3 20 км 8/3 1200 м
[Cu med, cong Ac trans Ci sp]
+21.9 +9.1 44 +23 +27 комфорт 1013.2 1012.6
СЗ 2 20 км 5/1 1500 м
[Cu med, cong Ac trans Ci sp]
+21.7 +9.0 44 +23 +28 комфорт 1013.0 1012.4
СЗ 2 20 км 6/1 1500 м
[Cu med, cong Ac trans Ci sp]
+20.9 +10.2 50 +23 +24 комфорт 1013.0 1012.4
З 3 20 км 5/1 1500 м
[Cu med, cong Ac trans Ci sp]
+21.3 +10.6 50 +23 +25 комфорт 1012.8 1012.2
штиль 0 20 км 3/3
[Cu med, cong Ac trans]
+19.4 +12.5 64 +21 +21 комфорт 1012.9 1012.2 +22.0
СВ 1 20 км 1/0
[Ac trans]
+16.0 +11.9 77 +17 +17 1013.2 1012.6
штиль 0 20 км 1/0
[Ac trans]
+13.6 +11.1 85 +13 +13 1013.3 1012.7
СВ 2 20 км 1/0
[Ac trans]
+13.8 +9.8 77 +13 +13 1013.3 1012.7
Местоположение метеостанции Тиват (Черногория): широта 42.40 долгота 18.73 высота над уровнем моря 5 м.
В архиве по умолчанию представлена погода в Тивате за последнюю неделю. Архивные данные за месяц целиком и за предыдущие месяцы, начиная с января 2011 года, Вы можете получить, выбрав интересующий диапазон дат из раскрывающегося списка и нажав кнопку "Найти!".
*Определитесь, кто Вы:
Внимание! Время в таблицах - всемирное. Для получения местного времени необходимо прибавить поправку, которая равна 1 ч.
Смотрите также архив погоды в соседних городах и на ближайших метеорологических станциях:
Партнеры нашего сайта:      
Пояснения к столбцам:
  • Ветер - указаны скорость ветра в м/с - средняя за 10 мин, порывы в срок и между сроками (в фигурных скобках) и направление, откуда дует ветер: С - северный,
  • СВ - северо-восточный, В - восточный, ЮВ - юго-восточный, Ю - южный, ЮЗ - юго-западный, З - западный, СЗ - северо-западный.
  • Видимость - горизонтальная дальность видимости в метрах или километрах. При видимости от 1 до 10 км при отсутствии осадков обычно наблюдается дымка, при ухудшении видимости до 1 км и менее - туман. В сухую погоду видимость может ухудшаться дымом, пылью или мглою.
  • Явления - указаны атмосферные явления, наблюдавшиеся в срок или в последний час перед сроком; фигурными скобками обозначены явления, наблюдавшиеся между сроками (за 1-3 часа до срока); квадратными скобками обозначены град или гололедные отложения с указанием их диаметра в мм.
  • Облачность - указаны через наклонную черту общая и нижняя облачность в баллах и высота нижней границы облаков в метрах; квадратными скобками обозначены формы облаков: Ci - перистые, Cs - перисто-слоистые, Cc - перисто-кучевые, Ac - высококучевые, As - высокослоистые, Sc - слоисто-кучевые, Ns - слоисто-дождевые, Cu - кучевые, Cb - кучево-дождевые. Подробнее классификацию облаков см. в Атласе облаков (PDF).
  • T - Температура воздуха - температура, измеренная на высоте 2 м над землей.
  • Td - Температура точки росы - температура, при понижении до которой содержащийся в воздухе водяной пар достигнет насыщения.
  • f - Относительная влажность воздуха - влажноcть воздуха, измеренная на высоте 2 м над землей.
  • Te - Эффективная температура - температура, которую ощущает одетый по сезону человек в тени. Характеристика душности погоды. При расчете учитывается влияние влажности воздуха и скорости ветра на теплоощущения человека.
  • Tes - Эффективная температура на солнце - температура, которую ощущает человек, с поправкой на солнечный нагрев. Характеристика знойности погоды. Зависит от высоты солнца над горизонтом, облачности и скорости ветра. Ночью, в пасмурную погоду, а также при ветре 12 м/с и более поправка равна нулю.
  • P - Атмосферное давление - приведенное к уровню моря атмосферное давление.
  • Po - Атмосферное давление - измеренное на уровне метеостанции атмосферное давление.
  • Tmin - Минимальная температура - минимум температуры воздуха на высоте 2 м над землей.
  • Tmax - Максимальная температура - максимум температуры воздуха на высоте 2 м над землей.
  • R - Количество осадков - Количество выпавших осадков за период времени, мм. При наведении курсора мыши на число - период времени, за который выпало указанное количество осадков.
  • R24 - Количество осадков - Количество выпавших осадков за 24 часа, мм.
  • S - Снежный покров - Высота снежного покрова, см. При наведении курсора мыши на число - состояние снежного покрова и степень покрытия местности в баллах.